Home > Weather > Malabo > Past weeks

Flag for Equatorial Guinea Weather for the Past 2 Weeks in Malabo, Equatorial Guinea

Now
79 °F

Drizzle. Mostly cloudy.


Feels Like: 82 °F
Forecast: 75 / 86 °F
Wind: 8 mph from North

Location: Malabo/Fernando Poo

Current Time: Feb 12, 2016 at 2:08:38 PM

Latest Report: Feb 12, 2016 at 1:00 PM


Visibility: 1 mi

Pressure: 29.89 "Hg

Humidity: 89%

Dew point: 75 °F

Location of MalaboLocation

Historic Weather in Malabo — Graph

°F

Malabo Temperature Yesterday

Maximum temperature yesterday: 88 °F (at 12:00 PM)
Minimum temperature yesterday: 73 °F (at 1:00 AM)
Average temperature yesterday: 80 °F

High & Low Weather Summary for the Past Weeks

 TemperatureHumidityPressure
High90 °F (Feb 4, 2:00 PM)94% (Jan 30, 5:00 AM)30.01 "Hg (Jan 30, 5:00 AM)
Low70 °F (Jan 30, 7:00 AM)43% (Jan 31, 11:00 AM)29.77 "Hg (Feb 2, 3:00 PM)
Average81 °F74%29.89 "Hg
* Reported Jan 28 1:00 PM — Feb 12 1:00 PM, Malabo, Weather by CustomWeather, © 2016

Note: Actual official high and low records may vary slightly from our data, if they occured in-between our weather recording intervals... More about our weather records

Advertising

Malabo Weather History for the Previous 24 Hours

 ConditionsComfort  
Time TempWeatherWind HumidityBarometerVisibility
1:00 PM
Fri, Feb 12
79 °FDrizzle. Mostly cloudy.8 mph89%29.89 "Hg1 mi
12:00 PM79 °FDrizzle. Fog.6 mph84%29.92 "Hg2 mi
11:00 AM84 °FFog.7 mph79%29.92 "Hg2 mi
10:00 AM81 °FFog.9 mph89%29.92 "Hg2 mi
9:00 AM84 °FFog.3 mph74%29.89 "Hg3 mi
8:00 AM79 °FFog.3 mph84%29.89 "Hg3 mi
7:00 AM77 °FFog.3 mph89%29.86 "Hg3 mi
6:00 AM77 °FFog.5 mph83%29.86 "Hg3 mi
5:00 AM75 °FFog.3 mph89%29.83 "Hg3 mi
4:00 AM75 °FFog.7 mph89%29.83 "Hg3 mi
3:00 AM75 °FFog.6 mph89%29.83 "Hg3 mi
2:00 AM77 °FFog.6 mph89%29.83 "Hg3 mi
1:00 AM79 °FFog.5 mph84%29.86 "Hg3 mi
12:00 AM81 °FFog.6 mph79%29.86 "Hg3 mi
11:00 PM
Thu, Feb 11
79 °FFog.5 mph84%29.89 "Hg2 mi
10:00 PM81 °FFog.6 mph79%29.86 "Hg2 mi
9:00 PM81 °FFog.5 mph79%29.86 "Hg2 mi
8:00 PM81 °FFog.5 mph79%29.83 "Hg2 mi
7:00 PM81 °FFog.5 mph79%29.83 "Hg2 mi
6:00 PM84 °FHaze.7 mph70%29.80 "Hg3 mi
5:00 PM86 °FHaze.7 mph75%29.80 "Hg2 mi
4:00 PM86 °FHaze.9 mph75%29.80 "Hg2 mi
3:00 PM88 °FHaze.8 mph66%29.80 "Hg2 mi
2:00 PM88 °FHaze.9 mph62%29.83 "Hg1 mi
Weather by CustomWeather, © 2016

See weather overviewHow to use our weather pages